QPF
0.01 0.00 0.00 0.00 0.00 0.00 0.00 0.00 0.01 0.01 0.02 0.02 0.02 0.02 0.02 0.02 0.01 0.02 0.03 0.04 0.05 0.07 0.12 0.14 0.16 0.12 0.12 0.10 0.13 0.23 0.21 0.16 0.17 0.15 0.12 0.12 0.11 0.10 0.10 0.09 0.07 0.06 0.06
0.01 0.00 0.00 0.00 0.00 0.00 0.00 0.00 0.00 0.01 0.01 0.02 0.02 0.02 0.02 0.03 0.03 0.03 0.04 0.06 0.08 0.09 0.10 0.11 0.12 0.14 0.14 0.12 0.18 0.23 0.16 0.14 0.15 0.15 0.13 0.11 0.10 0.08 0.08 0.09 0.08 0.08 0.07
0.00 0.01 0.00 0.00 0.00 0.00 0.00 0.01 0.01 0.01 0.03 0.03 0.02 0.02 0.02 0.03 0.03 0.04 0.04 0.06 0.08 0.08 0.08 0.09 0.11 0.16 0.20 0.18 0.18 0.16 0.14 0.12 0.14 0.15 0.15 0.12 0.11 0.08 0.06 0.08 0.07 0.07 0.08
0.01 0.01 0.01 0.00 0.01 0.01 0.00 0.01 0.01 0.01 0.02 0.02 0.02 0.02 0.02 0.03 0.03 0.04 0.04 0.04 0.05 0.05 0.05 0.05 0.05 0.08 0.16 0.16 0.13 0.12 0.14 0.16 0.17 0.14 0.12 0.12 0.13 0.10 0.08 0.09 0.08 0.06 0.09
0.02 0.01 0.00 0.00 0.00 0.00 0.00 0.01 0.01 0.01 0.01 0.01 0.03 0.02 0.02 0.02 0.02 0.03 0.03 0.03 0.04 0.04 0.05 0.05 0.04 0.06 0.08 0.09 0.09 0.11 0.13 0.17 0.18 0.13 0.10 0.10 0.11 0.09 0.09 0.13 0.11 0.08 0.08
0.00 0.00 0.00 0.00 0.01 0.01 0.01 0.01 0.01 0.01 0.01 0.01 0.02 0.02 0.01 0.02 0.02 0.02 0.03 0.03 0.03 0.04 0.06 0.12 0.09 0.07 0.07 0.07 0.07 0.08 0.09 0.12 0.15 0.13 0.12 0.09 0.08 0.06 0.06 0.08 0.08 0.06 0.07
0.00 0.00 0.00 0.00 0.00 0.01 0.02 0.01 0.01 0.01 0.00 0.01 0.02 0.02 0.02 0.02 0.03 0.02 0.02 0.03 0.03 0.03 0.04 0.10 0.17 0.12 0.08 0.06 0.05 0.07 0.07 0.10 0.13 0.12 0.13 0.11 0.08 0.04 0.03 0.03 0.05 0.06 0.07
0.00 0.00 0.00 0.00 0.00 0.01 0.01 0.01 0.01 0.01 0.01 0.01 0.03 0.02 0.02 0.02 0.04 0.04 0.03 0.03 0.03 0.03 0.03 0.05 0.12 0.16 0.11 0.07 0.06 0.07 0.06 0.06 0.09 0.10 0.10 0.10 0.10 0.05 0.04 0.04 0.05 0.07 0.08
0.00 0.00 0.01 0.01 0.00 0.00 0.01 0.01 0.02 0.01 0.01 0.01 0.02 0.02 0.02 0.03 0.02 0.05 0.10 0.10 0.06 0.04 0.04 0.04 0.06 0.11 0.10 0.08 0.08 0.07 0.04 0.04 0.08 0.10 0.11 0.10 0.09 0.07 0.05 0.07 0.06 0.07 0.09
0.00 0.01 0.01 0.02 0.01 0.01 0.01 0.01 0.01 0.01 0.01 0.01 0.02 0.02 0.03 0.05 0.04 0.12 0.14 0.09 0.08 0.04 0.04 0.04 0.05 0.08 0.10 0.09 0.09 0.08 0.06 0.06 0.08 0.10 0.10 0.08 0.06 0.05 0.05 0.07 0.06 0.07 0.09
0.00 0.01 0.01 0.02 0.01 0.01 0.01 0.00 0.01 0.02 0.02 0.02 0.04 0.04 0.06 0.09 0.10 0.15 0.12 0.06 0.06 0.04 0.03 0.04 0.03 0.05 0.06 0.08 0.07 0.06 0.06 0.06 0.07 0.11 0.11 0.07 0.05 0.04 0.04 0.04 0.06 0.07 0.09
0.01 0.02 0.02 0.01 0.01 0.02 0.01 0.02 0.01 0.02 0.05 0.05 0.06 0.06 0.09 0.11 0.11 0.08 0.09 0.06 0.04 0.03 0.04 0.04 0.05 0.04 0.05 0.05 0.05 0.04 0.04 0.04 0.07 0.11 0.11 0.08 0.06 0.05 0.04 0.05 0.06 0.07 0.09
0.02 0.03 0.06 0.05 0.02 0.01 0.02 0.03 0.02 0.04 0.06 0.07 0.08 0.08 0.12 0.10 0.10 0.10 0.08 0.07 0.07 0.06 0.07 0.07 0.07 0.05 0.06 0.07 0.05 0.03 0.03 0.03 0.06 0.09 0.10 0.09 0.06 0.05 0.06 0.06 0.06 0.08 0.10
0.01 0.01 0.03 0.07 0.03 0.02 0.02 0.02 0.03 0.04 0.05 0.06 0.08 0.09 0.11 0.15 0.13 0.15 0.10 0.09 0.09 0.10 0.10 0.09 0.09 0.07 0.08 0.12 0.08 0.04 0.03 0.05 0.07 0.08 0.07 0.06 0.05 0.05 0.06 0.06 0.07 0.09 0.11
0.00 0.00 0.01 0.01 0.01 0.02 0.02 0.03 0.03 0.04 0.05 0.06 0.06 0.07 0.10 0.20 0.12 0.09 0.08 0.07 0.06 0.08 0.09 0.09 0.08 0.07 0.08 0.08 0.06 0.05 0.06 0.07 0.08 0.08 0.06 0.05 0.05 0.05 0.07 0.08 0.08 0.10 0.12
0.00 0.01 0.00 0.01 0.02 0.03 0.03 0.03 0.03 0.04 0.05 0.05 0.05 0.04 0.05 0.11 0.09 0.07 0.05 0.05 0.05 0.06 0.06 0.07 0.07 0.06 0.08 0.07 0.07 0.07 0.07 0.09 0.09 0.07 0.06 0.06 0.05 0.05 0.08 0.09 0.08 0.10 0.13
0.00 0.00 0.01 0.01 0.02 0.03 0.04 0.04 0.04 0.04 0.03 0.04 0.05 0.04 0.03 0.05 0.07 0.06 0.04 0.05 0.05 0.04 0.05 0.06 0.05 0.07 0.07 0.08 0.09 0.09 0.09 0.07 0.07 0.09 0.08 0.07 0.05 0.05 0.08 0.08 0.09 0.12 0.16
0.00 0.00 0.01 0.01 0.02 0.02 0.03 0.04 0.04 0.04 0.04 0.06 0.05 0.03 0.03 0.03 0.04 0.04 0.04 0.04 0.05 0.05 0.05 0.05 0.05 0.06 0.08 0.09 0.09 0.10 0.09 0.08 0.08 0.09 0.08 0.06 0.04 0.04 0.06 0.07 0.08 0.09 0.14
0.00 0.00 0.00 0.01 0.01 0.02 0.02 0.03 0.03 0.04 0.05 0.06 0.04 0.04 0.04 0.03 0.02 0.04 0.05 0.05 0.04 0.05 0.05 0.05 0.05 0.07 0.09 0.09 0.08 0.08 0.07 0.07 0.06 0.07 0.06 0.07 0.05 0.04 0.05 0.07 0.08 0.08 0.08
0.00 0.00 0.00 0.00 0.01 0.01 0.02 0.03 0.03 0.03 0.05 0.06 0.04 0.05 0.04 0.03 0.03 0.04 0.04 0.04 0.04 0.05 0.06 0.05 0.05 0.05 0.05 0.06 0.05 0.06 0.07 0.06 0.05 0.06 0.05 0.05 0.05 0.04 0.04 0.06 0.07 0.06 0.06
0.00 0.00 0.00 0.00 0.00 0.00 0.01 0.02 0.03 0.03 0.05 0.05 0.04 0.03 0.03 0.03 0.03 0.05 0.04 0.04 0.05 0.05 0.06 0.06 0.06 0.04 0.04 0.05 0.05 0.06 0.06 0.05 0.05 0.05 0.05 0.04 0.03 0.04 0.04 0.05 0.07 0.06 0.05
0.01 0.00 0.00 0.00 0.00 0.00 0.01 0.01 0.02 0.03 0.04 0.03 0.03 0.04 0.04 0.04 0.04 0.03 0.04 0.05 0.06 0.06 0.06 0.07 0.08 0.07 0.05 0.05 0.06 0.08 0.08 0.09 0.08 0.05 0.05 0.05 0.04 0.03 0.04 0.05 0.04 0.04 0.03
0.01 0.00 0.01 0.00 0.00 0.00 0.00 0.01 0.02 0.02 0.02 0.02 0.03 0.04 0.04 0.04 0.04 0.04 0.05 0.06 0.07 0.06 0.05 0.06 0.07 0.08 0.08 0.06 0.05 0.09 0.12 0.12 0.11 0.09 0.07 0.05 0.04 0.03 0.03 0.03 0.04 0.04 0.03
0.01 0.00 0.01 0.00 0.00 0.01 0.01 0.02 0.02 0.02 0.03 0.02 0.02 0.03 0.04 0.03 0.02 0.03 0.04 0.06 0.07 0.07 0.07 0.05 0.05 0.06 0.08 0.08 0.07 0.07 0.08 0.09 0.12 0.11 0.08 0.06 0.05 0.04 0.03 0.02 0.03 0.04 0.03
0.01 0.01 0.01 0.01 0.01 0.01 0.02 0.01 0.02 0.02 0.01 0.01 0.02 0.04 0.05 0.04 0.03 0.02 0.04 0.06 0.06 0.07 0.06 0.05 0.06 0.07 0.08 0.09 0.08 0.08 0.07 0.07 0.08 0.09 0.10 0.09 0.06 0.05 0.03 0.02 0.03 0.03 0.04
0.00 0.01 0.01 0.01 0.01 0.01 0.01 0.02 0.02 0.01 0.01 0.01 0.02 0.04 0.04 0.04 0.03 0.03 0.03 0.05 0.05 0.04 0.04 0.05 0.07 0.08 0.07 0.07 0.06 0.05 0.04 0.05 0.06 0.07 0.09 0.11 0.09 0.07 0.05 0.04 0.04 0.03 0.03
MSLP
1011.03 1010.79 1010.71 1010.85 1011.16 1011.59 1012.06 1012.49 1012.81 1013.02 1013.13 1013.18 1013.25 1013.35 1013.53 1013.78 1014.06 1014.35 1014.62 1014.83 1015.00 1015.14 1015.28 1015.43 1015.59 1015.78 1015.94 1016.08 1016.16 1016.19 1016.17 1016.13 1016.10 1016.12 1016.18 1016.31 1016.46 1016.63 1016.78 1016.91 1017.00 1017.08 1017.16
1011.14 1011.01 1011.03 1011.24 1011.59 1012.04 1012.50 1012.90 1013.20 1013.39 1013.50 1013.58 1013.68 1013.84 1014.06 1014.33 1014.62 1014.89 1015.10 1015.25 1015.36 1015.45 1015.54 1015.67 1015.84 1016.03 1016.21 1016.35 1016.43 1016.44 1016.40 1016.35 1016.31 1016.32 1016.40 1016.54 1016.72 1016.90 1017.06 1017.18 1017.26 1017.31 1017.37
1011.14 1011.12 1011.24 1011.52 1011.92 1012.38 1012.84 1013.24 1013.53 1013.73 1013.86 1013.97 1014.11 1014.30 1014.55 1014.82 1015.09 1015.31 1015.46 1015.55 1015.59 1015.63 1015.70 1015.82 1015.99 1016.18 1016.37 1016.51 1016.57 1016.57 1016.52 1016.46 1016.42 1016.45 1016.55 1016.71 1016.92 1017.12 1017.30 1017.43 1017.51 1017.56 1017.61
1011.01 1011.10 1011.31 1011.66 1012.11 1012.61 1013.09 1013.49 1013.79 1014.01 1014.17 1014.31 1014.49 1014.71 1014.97 1015.23 1015.47 1015.64 1015.73 1015.76 1015.75 1015.76 1015.81 1015.92 1016.09 1016.29 1016.47 1016.60 1016.65 1016.63 1016.56 1016.49 1016.46 1016.50 1016.64 1016.84 1017.08 1017.32 1017.52 1017.67 1017.76 1017.82 1017.87
1010.77 1010.96 1011.26 1011.68 1012.19 1012.73 1013.23 1013.65 1013.98 1014.22 1014.41 1014.59 1014.80 1015.04 1015.30 1015.55 1015.76 1015.89 1015.94 1015.93 1015.89 1015.88 1015.92 1016.03 1016.20 1016.39 1016.57 1016.68 1016.71 1016.66 1016.58 1016.50 1016.48 1016.54 1016.70 1016.94 1017.22 1017.49 1017.72 1017.89 1018.00 1018.07 1018.14
1010.45 1010.72 1011.10 1011.60 1012.16 1012.74 1013.28 1013.73 1014.08 1014.35 1014.57 1014.78 1015.02 1015.28 1015.56 1015.81 1016.00 1016.11 1016.14 1016.11 1016.06 1016.04 1016.09 1016.20 1016.36 1016.55 1016.70 1016.79 1016.79 1016.72 1016.62 1016.53 1016.51 1016.59 1016.78 1017.05 1017.36 1017.66 1017.92 1018.10 1018.22 1018.30 1018.37
1010.10 1010.43 1010.89 1011.45 1012.08 1012.70 1013.27 1013.75 1014.12 1014.41 1014.66 1014.90 1015.17 1015.46 1015.75 1016.01 1016.21 1016.32 1016.35 1016.33 1016.29 1016.28 1016.32 1016.43 1016.59 1016.76 1016.88 1016.94 1016.91 1016.82 1016.70 1016.61 1016.59 1016.69 1016.90 1017.19 1017.53 1017.85 1018.11 1018.30 1018.42 1018.49 1018.56
1009.79 1010.18 1010.69 1011.31 1011.99 1012.65 1013.24 1013.73 1014.12 1014.43 1014.70 1014.97 1015.26 1015.58 1015.90 1016.19 1016.41 1016.55 1016.60 1016.59 1016.56 1016.56 1016.60 1016.71 1016.85 1016.99 1017.09 1017.12 1017.07 1016.96 1016.84 1016.75 1016.74 1016.86 1017.08 1017.39 1017.73 1018.06 1018.32 1018.50 1018.60 1018.65 1018.70
1009.59 1010.01 1010.57 1011.23 1011.94 1012.61 1013.21 1013.70 1014.09 1014.41 1014.69 1014.98 1015.31 1015.66 1016.02 1016.35 1016.61 1016.77 1016.85 1016.85 1016.83 1016.83 1016.87 1016.95 1017.07 1017.18 1017.26 1017.28 1017.22 1017.12 1017.00 1016.94 1016.95 1017.09 1017.33 1017.65 1017.99 1018.31 1018.55 1018.71 1018.78 1018.80 1018.81
1009.53 1009.98 1010.56 1011.24 1011.95 1012.62 1013.20 1013.68 1014.05 1014.36 1014.65 1014.96 1015.32 1015.71 1016.11 1016.48 1016.77 1016.97 1017.06 1017.07 1017.05 1017.03 1017.04 1017.10 1017.19 1017.29 1017.35 1017.37 1017.33 1017.25 1017.18 1017.14 1017.20 1017.36 1017.62 1017.95 1018.30 1018.60 1018.82 1018.95 1018.99 1018.96 1018.92
1009.66 1010.11 1010.70 1011.37 1012.05 1012.68 1013.22 1013.64 1013.98 1014.27 1014.56 1014.89 1015.28 1015.71 1016.14 1016.55 1016.87 1017.08 1017.18 1017.19 1017.15 1017.10 1017.09 1017.12 1017.18 1017.26 1017.34 1017.38 1017.37 1017.34 1017.32 1017.35 1017.45 1017.65 1017.94 1018.27 1018.61 1018.91 1019.12 1019.22 1019.22 1019.16 1019.07
1009.98 1010.42 1010.98 1011.61 1012.22 1012.77 1013.23 1013.58 1013.87 1014.12 1014.40 1014.74 1015.15 1015.61 1016.08 1016.51 1016.85 1017.07 1017.17 1017.16 1017.10 1017.03 1016.98 1016.98 1017.04 1017.13 1017.22 1017.30 1017.36 1017.40 1017.45 1017.53 1017.69 1017.92 1018.22 1018.57 1018.91 1019.20 1019.40 1019.50 1019.49 1019.40 1019.28
1010.49 1010.89 1011.39 1011.93 1012.44 1012.87 1013.22 1013.48 1013.69 1013.89 1014.15 1014.49 1014.91 1015.39 1015.88 1016.33 1016.68 1016.91 1017.00 1016.98 1016.90 1016.81 1016.75 1016.74 1016.80 1016.91 1017.05 1017.19 1017.32 1017.43 1017.55 1017.69 1017.89 1018.15 1018.46 1018.81 1019.14 1019.44 1019.64 1019.74 1019.74 1019.66 1019.53
1011.14 1011.49 1011.90 1012.31 1012.68 1012.97 1013.17 1013.31 1013.43 1013.57 1013.79 1014.11 1014.53 1015.02 1015.52 1015.98 1016.34 1016.57 1016.66 1016.65 1016.57 1016.49 1016.44 1016.45 1016.54 1016.70 1016.89 1017.10 1017.29 1017.47 1017.65 1017.83 1018.05 1018.31 1018.62 1018.95 1019.28 1019.57 1019.78 1019.91 1019.94 1019.89 1019.79
1011.90 1012.16 1012.45 1012.72 1012.92 1013.05 1013.10 1013.10 1013.11 1013.18 1013.34 1013.63 1014.02 1014.50 1014.99 1015.45 1015.82 1016.06 1016.18 1016.19 1016.15 1016.11 1016.10 1016.17 1016.32 1016.54 1016.80 1017.07 1017.33 1017.56 1017.77 1017.97 1018.18 1018.41 1018.68 1018.98 1019.28 1019.56 1019.80 1019.96 1020.04 1020.05 1020.00
1012.71 1012.87 1013.03 1013.13 1013.16 1013.12 1013.01 1012.88 1012.78 1012.75 1012.84 1013.07 1013.42 1013.85 1014.32 1014.77 1015.14 1015.41 1015.57 1015.64 1015.68 1015.71 1015.79 1015.94 1016.17 1016.47 1016.80 1017.13 1017.44 1017.70 1017.91 1018.10 1018.27 1018.45 1018.66 1018.90 1019.16 1019.42 1019.66 1019.86 1020.01 1020.09 1020.12
1013.51 1013.57 1013.58 1013.54 1013.41 1013.21 1012.97 1012.71 1012.50 1012.37 1012.37 1012.52 1012.79 1013.15 1013.57 1013.99 1014.36 1014.66 1014.87 1015.03 1015.16 1015.31 1015.50 1015.76 1016.09 1016.47 1016.87 1017.26 1017.59 1017.86 1018.07 1018.22 1018.33 1018.44 1018.57 1018.74 1018.95 1019.18 1019.42 1019.65 1019.85 1020.01 1020.13
1014.24 1014.19 1014.10 1013.93 1013.68 1013.36 1013.00 1012.65 1012.34 1012.11 1012.01 1012.05 1012.21 1012.48 1012.82 1013.18 1013.53 1013.85 1014.12 1014.38 1014.62 1014.90 1015.21 1015.59 1016.02 1016.49 1016.95 1017.38 1017.74 1018.01 1018.19 1018.30 1018.35 1018.39 1018.45 1018.54 1018.68 1018.87 1019.10 1019.35 1019.60 1019.83 1020.04
1014.85 1014.73 1014.55 1014.30 1013.98 1013.59 1013.17 1012.74 1012.35 1012.04 1011.83 1011.74 1011.77 1011.90 1012.13 1012.40 1012.71 1013.03 1013.35 1013.69 1014.04 1014.43 1014.88 1015.36 1015.89 1016.43 1016.94 1017.41 1017.78 1018.06 1018.23 1018.31 1018.33 1018.31 1018.30 1018.33 1018.41 1018.56 1018.77 1019.02 1019.31 1019.60 1019.87
1015.32 1015.16 1014.94 1014.66 1014.31 1013.91 1013.47 1013.01 1012.58 1012.18 1011.86 1011.63 1011.51 1011.49 1011.57 1011.73 1011.96 1012.25 1012.59 1012.98 1013.42 1013.90 1014.44 1015.01 1015.61 1016.21 1016.77 1017.26 1017.66 1017.95 1018.13 1018.22 1018.22 1018.19 1018.15 1018.14 1018.18 1018.29 1018.48 1018.73 1019.02 1019.35 1019.68
1015.64 1015.47 1015.25 1014.98 1014.66 1014.30 1013.89 1013.44 1012.98 1012.53 1012.11 1011.75 1011.46 1011.27 1011.18 1011.20 1011.33 1011.55 1011.86 1012.27 1012.74 1013.28 1013.87 1014.50 1015.14 1015.77 1016.36 1016.88 1017.31 1017.64 1017.86 1017.98 1018.02 1018.01 1017.98 1017.96 1017.99 1018.08 1018.25 1018.48 1018.78 1019.12 1019.49
1015.82 1015.66 1015.48 1015.27 1015.01 1014.72 1014.37 1013.96 1013.51 1013.03 1012.53 1012.04 1011.60 1011.24 1010.98 1010.84 1010.83 1010.95 1011.21 1011.58 1012.04 1012.58 1013.18 1013.82 1014.46 1015.10 1015.71 1016.26 1016.73 1017.11 1017.40 1017.59 1017.71 1017.75 1017.77 1017.78 1017.82 1017.91 1018.06 1018.28 1018.57 1018.91 1019.30
1015.90 1015.77 1015.63 1015.49 1015.32 1015.11 1014.84 1014.50 1014.08 1013.58 1013.03 1012.45 1011.88 1011.36 1010.94 1010.64 1010.49 1010.49 1010.64 1010.94 1011.34 1011.84 1012.40 1013.00 1013.62 1014.25 1014.86 1015.42 1015.94 1016.39 1016.77 1017.05 1017.26 1017.40 1017.49 1017.56 1017.63 1017.72 1017.87 1018.07 1018.35 1018.69 1019.07
1015.90 1015.80 1015.71 1015.63 1015.53 1015.40 1015.21 1014.94 1014.57 1014.09 1013.52 1012.88 1012.22 1011.58 1011.03 1010.59 1010.29 1010.16 1010.19 1010.38 1010.69 1011.09 1011.58 1012.12 1012.69 1013.28 1013.87 1014.46 1015.02 1015.53 1016.00 1016.39 1016.70 1016.94 1017.12 1017.25 1017.36 1017.47 1017.62 1017.82 1018.07 1018.40 1018.78
1015.88 1015.79 1015.72 1015.67 1015.63 1015.56 1015.43 1015.22 1014.90 1014.46 1013.90 1013.25 1012.54 1011.84 1011.18 1010.63 1010.21 1009.95 1009.86 1009.91 1010.10 1010.40 1010.79 1011.24 1011.74 1012.28 1012.86 1013.44 1014.03 1014.61 1015.15 1015.63 1016.05 1016.38 1016.64 1016.83 1016.98 1017.12 1017.27 1017.46 1017.70 1018.02 1018.39
1015.86 1015.76 1015.68 1015.63 1015.59 1015.54 1015.46 1015.30 1015.04 1014.65 1014.13 1013.50 1012.80 1012.07 1011.37 1010.74 1010.22 1009.84 1009.62 1009.55 1009.61 1009.78 1010.06 1010.41 1010.84 1011.33 1011.87 1012.45 1013.06 1013.68 1014.28 1014.83 1015.32 1015.73 1016.05 1016.29 1016.48 1016.64 1016.80 1016.99 1017.23 1017.53 1017.90
Thickness
5814 5808 5802 5798 5795 5792 5790 5788 5786 5784 5783 5782 5781 5780 5780 5780 5779 5779 5778 5778 5777 5776 5776 5775 5774 5774 5774 5773 5773 5772 5771 5770 5769 5768 5767 5766 5765 5764 5763 5762 5762 5761 5760
5816 5808 5801 5797 5794 5791 5789 5787 5785 5783 5781 5780 5780 5779 5778 5778 5777 5777 5776 5776 5775 5774 5774 5773 5773 5773 5772 5772 5771 5770 5769 5769 5768 5767 5766 5765 5764 5762 5762 5762 5761 5760 5759
5816 5807 5801 5797 5793 5790 5788 5786 5784 5782 5780 5779 5778 5777 5776 5776 5775 5775 5774 5774 5773 5772 5772 5772 5772 5771 5771 5769 5769 5768 5767 5767 5766 5765 5765 5764 5763 5761 5761 5760 5759 5758 5757
5817 5808 5802 5796 5793 5790 5787 5785 5782 5780 5779 5778 5776 5776 5775 5774 5773 5773 5772 5772 5771 5770 5770 5771 5771 5771 5770 5767 5767 5766 5766 5766 5765 5765 5765 5764 5763 5760 5760 5759 5758 5756 5755
5816 5808 5800 5795 5792 5789 5786 5784 5782 5780 5778 5776 5775 5774 5773 5772 5772 5771 5770 5770 5769 5769 5769 5769 5770 5771 5770 5767 5766 5765 5765 5765 5765 5765 5764 5763 5761 5759 5759 5758 5756 5755 5753
5815 5808 5800 5795 5791 5788 5785 5783 5781 5779 5777 5775 5774 5772 5771 5771 5770 5769 5768 5768 5767 5767 5767 5767 5767 5767 5766 5765 5764 5764 5764 5764 5764 5765 5764 5762 5760 5758 5758 5757 5755 5753 5752
5816 5808 5800 5795 5791 5788 5785 5782 5780 5778 5776 5774 5773 5771 5770 5769 5768 5767 5767 5766 5766 5765 5765 5764 5764 5764 5763 5763 5763 5763 5763 5763 5763 5763 5762 5760 5758 5757 5756 5754 5752 5751 5750
5818 5809 5800 5795 5791 5788 5785 5782 5780 5777 5775 5773 5771 5770 5769 5768 5767 5766 5765 5765 5764 5763 5763 5762 5762 5761 5761 5761 5761 5762 5762 5762 5763 5762 5760 5758 5757 5755 5754 5752 5751 5750 5749
5819 5810 5801 5796 5791 5788 5785 5782 5779 5777 5775 5772 5771 5769 5768 5767 5766 5766 5764 5764 5763 5762 5761 5760 5760 5760 5760 5760 5760 5761 5761 5761 5761 5761 5759 5756 5755 5754 5752 5751 5749 5748 5747
5819 5812 5806 5800 5794 5789 5786 5782 5780 5777 5774 5772 5770 5769 5768 5767 5766 5765 5764 5763 5763 5761 5760 5759 5759 5758 5758 5759 5759 5760 5759 5760 5760 5759 5757 5755 5753 5752 5751 5749 5748 5747 5746
5816 5813 5808 5802 5797 5793 5789 5784 5780 5777 5775 5772 5770 5769 5768 5767 5766 5765 5763 5763 5762 5760 5758 5758 5758 5757 5757 5758 5758 5758 5758 5759 5758 5757 5755 5753 5752 5750 5749 5748 5747 5745 5744
5812 5812 5809 5804 5799 5795 5791 5786 5782 5779 5775 5773 5771 5769 5767 5767 5765 5764 5762 5761 5760 5758 5757 5757 5756 5756 5756 5757 5757 5757 5757 5758 5757 5755 5752 5751 5750 5749 5748 5746 5745 5744 5742
5814 5811 5809 5804 5800 5796 5791 5787 5784 5781 5777 5774 5771 5769 5767 5766 5765 5763 5761 5759 5758 5757 5756 5756 5755 5755 5756 5756 5757 5757 5757 5756 5755 5752 5749 5749 5748 5747 5746 5744 5743 5742 5741
5814 5810 5809 5805 5799 5795 5791 5788 5785 5782 5778 5775 5772 5769 5767 5765 5763 5762 5760 5759 5758 5757 5756 5755 5755 5755 5755 5755 5755 5755 5755 5754 5752 5750 5748 5747 5746 5745 5744 5743 5742 5740 5739
5812 5809 5807 5804 5798 5793 5790 5787 5784 5781 5778 5775 5771 5768 5766 5764 5762 5761 5759 5758 5757 5756 5755 5754 5754 5754 5753 5753 5753 5753 5752 5750 5750 5748 5746 5745 5744 5743 5743 5741 5740 5739 5738
5811 5808 5806 5802 5796 5792 5788 5785 5783 5780 5777 5774 5770 5767 5765 5762 5760 5759 5758 5756 5755 5755 5754 5753 5753 5752 5751 5751 5751 5750 5750 5749 5748 5746 5744 5743 5742 5742 5741 5740 5738 5737 5736
5810 5808 5804 5800 5795 5790 5786 5784 5782 5779 5776 5772 5769 5766 5763 5761 5759 5757 5755 5754 5754 5754 5753 5752 5751 5750 5750 5749 5748 5748 5747 5747 5746 5745 5743 5742 5741 5740 5739 5738 5736 5735 5734
5811 5806 5802 5800 5794 5789 5785 5782 5780 5777 5774 5771 5768 5765 5762 5760 5758 5756 5754 5753 5753 5752 5751 5750 5748 5747 5746 5745 5745 5746 5746 5745 5744 5743 5742 5741 5740 5739 5737 5736 5735 5734 5732
5810 5805 5800 5797 5792 5788 5784 5781 5778 5775 5772 5770 5767 5764 5761 5759 5757 5755 5753 5752 5751 5750 5749 5748 5746 5745 5742 5742 5742 5743 5743 5743 5742 5742 5741 5740 5739 5738 5736 5734 5732 5731 5729
5809 5804 5798 5794 5790 5787 5783 5779 5776 5774 5771 5769 5766 5763 5760 5758 5756 5754 5752 5751 5750 5748 5745 5744 5742 5743 5742 5741 5741 5741 5741 5741 5741 5740 5739 5738 5738 5736 5735 5733 5731 5729 5727
5805 5800 5796 5791 5788 5785 5780 5776 5772 5769 5768 5766 5764 5762 5759 5757 5755 5753 5751 5749 5748 5745 5743 5742 5740 5739 5739 5740 5736 5733 5735 5738 5738 5738 5737 5736 5735 5735 5734 5732 5730 5728 5725
5802 5798 5794 5790 5787 5783 5780 5776 5773 5770 5768 5766 5764 5761 5758 5756 5754 5752 5749 5747 5746 5743 5741 5739 5738 5736 5736 5737 5733 5728 5724 5726 5731 5736 5735 5734 5734 5733 5732 5731 5729 5727 5724
5801 5797 5794 5790 5786 5782 5780 5776 5772 5768 5766 5763 5760 5758 5757 5754 5752 5750 5748 5746 5744 5742 5739 5737 5736 5733 5731 5734 5734 5728 5721 5718 5723 5729 5731 5732 5731 5730 5730 5729 5727 5725 5723
5802 5799 5794 5789 5785 5781 5779 5774 5769 5763 5760 5759 5758 5756 5755 5753 5751 5749 5747 5745 5742 5740 5738 5736 5735 5734 5732 5729 5731 5732 5730 5727 5720 5718 5724 5728 5728 5727 5727 5726 5725 5723 5721
5804 5799 5793 5788 5783 5780 5777 5773 5767 5763 5761 5759 5757 5754 5752 5751 5749 5747 5745 5743 5740 5738 5736 5735 5733 5732 5731 5729 5727 5728 5727 5727 5725 5718 5715 5718 5722 5724 5724 5723 5722 5720 5718
5803 5798 5792 5785 5781 5778 5774 5770 5766 5761 5758 5755 5752 5750 5749 5748 5747 5745 5743 5741 5739 5737 5735 5733 5731 5730 5729 5728 5727 5726 5724 5722 5721 5719 5715 5714 5715 5718 5721 5721 5719 5718 5716